DLH3MA LGAV-EDDF

Flight info

Callsign DLH3MA
Flight time 2h 44m
Altitude 36000
Route KOR UL53 ELVAS DCT TUMBO DCT OVVER DCT RODON DCT NERRA DCT SIRMI DCT SIMBA DCT AKINI T161 DEBHI DEBHI1C
Aircraft A321/M-SDE3FGHIRWY/LB1

Departure

Time 2026-04-07 17:23
Airport Athens Eleftherios Venizelos International Airport (LGAV)

Arrival

Time 2026-04-07 20:07
Airport Frankfurt Main Airport (EDDF)
Time Latitude Longitude Altitude Speed Heading
2026-04-07 17:00 37.93868 23.95087 301 ft 0 kts 308°
2026-04-07 17:12 37.93861 23.95100 303 ft 4 kts 310°
2026-04-07 17:12 37.93842 23.95125 302 ft 4 kts 319°
2026-04-07 17:13 37.93821 23.95144 300 ft 4 kts 338°
2026-04-07 17:13 37.93798 23.95149 300 ft 3 kts 32°
2026-04-07 17:13 37.93795 23.95146 300 ft 0 kts 37°
2026-04-07 17:16 37.93805 23.95156 300 ft 4 kts 37°
2026-04-07 17:17 37.93840 23.95193 300 ft 9 kts 47°
2026-04-07 17:17 37.93874 23.95274 302 ft 12 kts 68°
2026-04-07 17:17 37.93877 23.95372 300 ft 12 kts 122°
2026-04-07 17:17 37.93854 23.95465 301 ft 12 kts 64°
2026-04-07 17:18 37.93923 23.95540 301 ft 14 kts 37°
2026-04-07 17:18 37.94001 23.95614 300 ft 15 kts 37°
2026-04-07 17:18 37.94084 23.95693 299 ft 15 kts 37°
2026-04-07 17:18 37.94170 23.95775 297 ft 16 kts 37°
2026-04-07 17:19 37.94260 23.95860 298 ft 16 kts 37°
2026-04-07 17:19 37.94353 23.95948 302 ft 17 kts 37°
2026-04-07 17:19 37.94449 23.96040 301 ft 18 kts 37°
2026-04-07 17:19 37.94549 23.96134 298 ft 18 kts 36°
2026-04-07 17:20 37.94639 23.96220 300 ft 12 kts 39°
2026-04-07 17:20 37.94659 23.96269 299 ft 5 kts 89°
2026-04-07 17:20 37.94641 23.96310 297 ft 4 kts 141°
2026-04-07 17:20 37.94626 23.96319 297 ft 3 kts 162°
2026-04-07 17:21 37.94574 23.96318 296 ft 12 kts 186°
2026-04-07 17:21 37.94482 23.96319 290 ft 9 kts 169°
2026-04-07 17:21 37.94446 23.96311 290 ft 0 kts 208°
2026-04-07 17:22 37.94442 23.96308 294 ft 3 kts 209°
2026-04-07 17:22 37.94289 23.96166 286 ft 63 kts 217°
2026-04-07 17:22 37.93749 23.95651 281 ft 129 kts 217°
2026-04-07 17:22 37.92901 23.94847 409 ft 165 kts 217°
2026-04-07 17:23 37.91948 23.94102 1180 ft 160 kts 210°
2026-04-07 17:23 37.90941 23.93438 1728 ft 170 kts 208°
2026-04-07 17:23 37.89822 23.92709 1964 ft 193 kts 207°
2026-04-07 17:23 37.88559 23.91892 2203 ft 214 kts 208°
2026-04-07 17:24 37.87173 23.90971 2487 ft 234 kts 208°
2026-04-07 17:24 37.85720 23.89999 3188 ft 238 kts 208°
2026-04-07 17:24 37.84236 23.89010 3883 ft 244 kts 209°
2026-04-07 17:24 37.82722 23.87994 4556 ft 250 kts 209°
2026-04-07 17:25 37.81253 23.86721 4965 ft 264 kts 229°
2026-04-07 17:25 37.80344 23.84704 5531 ft 268 kts 257°
2026-04-07 17:25 37.80277 23.82366 6192 ft 269 kts 281°
2026-04-07 17:25 37.80613 23.80034 6893 ft 271 kts 282°
2026-04-07 17:26 37.80966 23.77677 7569 ft 274 kts 282°
2026-04-07 17:26 37.81325 23.75296 8229 ft 277 kts 282°
2026-04-07 17:26 37.81686 23.72884 8877 ft 281 kts 282°
2026-04-07 17:26 37.82049 23.70441 9512 ft 284 kts 282°
2026-04-07 17:27 37.82414 23.67972 10177 ft 287 kts 282°
2026-04-07 17:27 37.82785 23.65438 10538 ft 302 kts 282°
2026-04-07 17:27 37.83178 23.62753 10799 ft 318 kts 282°
2026-04-07 17:27 37.83587 23.59950 11133 ft 330 kts 282°
2026-04-07 17:28 37.84010 23.57045 11492 ft 341 kts 282°
2026-04-07 17:28 37.84444 23.54052 11843 ft 351 kts 282°
2026-04-07 17:28 37.84886 23.50983 12234 ft 358 kts 282°
2026-04-07 17:28 37.85333 23.47873 12774 ft 361 kts 282°
2026-04-07 17:29 37.85786 23.44728 13301 ft 365 kts 282°
2026-04-07 17:29 37.86243 23.41556 13810 ft 368 kts 282°
2026-04-07 17:29 37.86704 23.38358 14329 ft 371 kts 282°
2026-04-07 17:29 37.87163 23.35175 14829 ft 374 kts 282°
2026-04-07 17:30 37.87631 23.31917 15333 ft 378 kts 282°
2026-04-07 17:30 37.88103 23.28633 15819 ft 381 kts 282°
2026-04-07 17:30 37.88578 23.25320 16307 ft 384 kts 282°
2026-04-07 17:30 37.89055 23.21982 16780 ft 387 kts 282°
2026-04-07 17:31 37.89537 23.18568 17230 ft 390 kts 282°
2026-04-07 17:31 37.90007 23.15221 17661 ft 393 kts 282°
2026-04-07 17:31 37.90487 23.11798 18082 ft 396 kts 282°
2026-04-07 17:31 37.90970 23.08354 18497 ft 399 kts 282°
2026-04-07 17:32 37.91458 23.04888 18904 ft 401 kts 282°
2026-04-07 17:32 37.91949 23.01396 19309 ft 404 kts 282°
2026-04-07 17:32 37.92442 22.97883 19708 ft 406 kts 283°
2026-04-07 17:32 37.93194 22.94442 20090 ft 406 kts 293°
2026-04-07 17:33 37.94409 22.91218 20476 ft 406 kts 303°
2026-04-07 17:33 37.95988 22.88254 20852 ft 407 kts 307°
2026-04-07 17:33 37.97622 22.85310 21226 ft 410 kts 307°
2026-04-07 17:33 37.99262 22.82337 21597 ft 412 kts 307°
2026-04-07 17:34 38.00905 22.79344 21957 ft 415 kts 307°
2026-04-07 17:34 38.02549 22.76339 22371 ft 415 kts 306°
2026-04-07 17:34 38.04198 22.73323 22766 ft 416 kts 306°
2026-04-07 17:34 38.05851 22.70299 23116 ft 418 kts 306°
2026-04-07 17:35 38.07519 22.67257 23449 ft 421 kts 306°
2026-04-07 17:35 38.09200 22.64201 23770 ft 424 kts 306°
2026-04-07 17:35 38.10891 22.61124 24098 ft 426 kts 306°
2026-04-07 17:35 38.12588 22.58027 24414 ft 428 kts 306°
2026-04-07 17:36 38.14288 22.54914 24733 ft 430 kts 306°
2026-04-07 17:36 38.15994 22.51786 25052 ft 432 kts 306°
2026-04-07 17:36 38.17706 22.48646 25361 ft 433 kts 307°
2026-04-07 17:36 38.19424 22.45494 25671 ft 435 kts 307°
2026-04-07 17:37 38.21150 22.42326 25981 ft 437 kts 306°
2026-04-07 17:37 38.22882 22.39140 26282 ft 438 kts 307°
2026-04-07 17:37 38.24617 22.35944 26586 ft 440 kts 307°
2026-04-07 17:37 38.26335 22.32775 26882 ft 442 kts 306°
2026-04-07 17:38 38.28104 22.29506 27168 ft 443 kts 306°
2026-04-07 17:38 38.29854 22.26270 27437 ft 445 kts 306°
2026-04-07 17:38 38.31611 22.23017 27702 ft 446 kts 307°
2026-04-07 17:38 38.33350 22.19801 27953 ft 448 kts 307°
2026-04-07 17:39 38.35142 22.16489 28200 ft 449 kts 307°
2026-04-07 17:39 38.36890 22.13252 28418 ft 450 kts 307°
2026-04-07 17:39 38.38687 22.09918 28644 ft 451 kts 307°
2026-04-07 17:39 38.40439 22.06658 28855 ft 452 kts 307°
2026-04-07 17:40 38.42241 22.03304 29095 ft 452 kts 307°
2026-04-07 17:40 38.44015 21.99999 29387 ft 451 kts 307°
2026-04-07 17:40 38.45761 21.96746 29656 ft 450 kts 306°
2026-04-07 17:40 38.47527 21.93451 29934 ft 449 kts 307°
2026-04-07 17:41 38.49290 21.90162 30208 ft 448 kts 307°
2026-04-07 17:41 38.51083 21.86912 30468 ft 447 kts 310°
2026-04-07 17:41 38.53166 21.83992 30723 ft 443 kts 319°
2026-04-07 17:41 38.55551 21.81529 30978 ft 440 kts 327°
2026-04-07 17:42 38.58088 21.79345 31234 ft 440 kts 328°
2026-04-07 17:42 38.60623 21.77164 31476 ft 439 kts 328°
2026-04-07 17:42 38.63154 21.74977 31735 ft 438 kts 328°
2026-04-07 17:42 38.65673 21.72790 31998 ft 437 kts 327°
2026-04-07 17:43 38.68187 21.70600 32242 ft 437 kts 327°
2026-04-07 17:43 38.70698 21.68415 32485 ft 436 kts 328°
2026-04-07 17:43 38.73205 21.66235 32722 ft 436 kts 328°
2026-04-07 17:43 38.75709 21.64054 32987 ft 435 kts 328°
2026-04-07 17:44 38.78206 21.61875 33233 ft 434 kts 328°
2026-04-07 17:44 38.80697 21.59697 33468 ft 433 kts 328°
2026-04-07 17:44 38.83186 21.57521 33697 ft 433 kts 328°
2026-04-07 17:44 38.85668 21.55349 33934 ft 432 kts 328°
2026-04-07 17:45 38.88152 21.53179 34160 ft 431 kts 328°
2026-04-07 17:45 38.90631 21.51014 34373 ft 431 kts 328°
2026-04-07 17:45 38.93076 21.48876 34576 ft 431 kts 328°
2026-04-07 17:45 38.95549 21.46710 34793 ft 430 kts 328°
2026-04-07 17:46 38.98018 21.44544 35006 ft 430 kts 328°
2026-04-07 17:46 39.00485 21.42379 35187 ft 429 kts 328°
2026-04-07 17:46 39.02951 21.40215 35375 ft 429 kts 328°
2026-04-07 17:46 39.05418 21.38048 35570 ft 429 kts 328°
2026-04-07 17:47 39.07885 21.35879 35766 ft 429 kts 328°
2026-04-07 17:47 39.10343 21.33713 35955 ft 428 kts 328°
2026-04-07 17:47 39.12799 21.31545 36119 ft 428 kts 327°
2026-04-07 17:48 39.17711 21.27198 36174 ft 428 kts 327°
2026-04-07 17:48 39.22617 21.22851 36165 ft 428 kts 328°
2026-04-07 17:49 39.27527 21.18505 36164 ft 428 kts 327°
2026-04-07 17:49 39.32438 21.14161 36164 ft 428 kts 327°
2026-04-07 17:50 39.37344 21.09797 36165 ft 428 kts 327°
2026-04-07 17:50 39.42251 21.05421 36170 ft 429 kts 327°
2026-04-07 17:51 39.47166 21.01040 36179 ft 429 kts 327°
2026-04-07 17:51 39.52081 20.96650 36182 ft 429 kts 327°
2026-04-07 17:52 39.56993 20.92251 36182 ft 430 kts 327°
2026-04-07 17:52 39.61907 20.87839 36184 ft 430 kts 327°
2026-04-07 17:53 39.66820 20.83420 36185 ft 430 kts 327°
2026-04-07 17:53 39.74194 20.76789 36186 ft 430 kts 327°
2026-04-07 17:54 39.79115 20.72352 36187 ft 430 kts 327°
2026-04-07 17:54 39.84026 20.67905 36186 ft 430 kts 327°
2026-04-07 17:55 39.88933 20.63459 36180 ft 430 kts 327°
2026-04-07 17:55 39.93843 20.59014 36179 ft 430 kts 327°
2026-04-07 17:56 39.98747 20.54553 36180 ft 430 kts 327°
2026-04-07 17:56 40.03653 20.50083 36185 ft 430 kts 327°
2026-04-07 17:57 40.08547 20.45598 36186 ft 430 kts 326°
2026-04-07 17:57 40.13371 20.40974 36187 ft 430 kts 325°
2026-04-07 17:58 40.18167 20.36285 36189 ft 431 kts 325°
2026-04-07 17:58 40.22971 20.31608 36190 ft 430 kts 326°
2026-04-07 17:59 40.27794 20.26950 36185 ft 430 kts 326°
2026-04-07 17:59 40.32611 20.22293 36183 ft 430 kts 326°
2026-04-07 18:00 40.37425 20.17617 36187 ft 431 kts 326°
2026-04-07 18:00 40.42236 20.12936 36196 ft 431 kts 326°
2026-04-07 18:01 40.47045 20.08241 36197 ft 431 kts 326°
2026-04-07 18:01 40.51854 20.03541 36197 ft 431 kts 325°
2026-04-07 18:02 40.56652 19.98833 36198 ft 430 kts 325°
2026-04-07 18:02 40.61453 19.94127 36195 ft 430 kts 325°
2026-04-07 18:03 40.66254 19.89422 36196 ft 430 kts 325°
2026-04-07 18:03 40.71051 19.84711 36188 ft 430 kts 325°
2026-04-07 18:04 40.75847 19.79988 36189 ft 430 kts 325°
2026-04-07 18:04 40.80639 19.75256 36187 ft 430 kts 325°
2026-04-07 18:05 40.85424 19.70527 36189 ft 430 kts 325°
2026-04-07 18:05 40.89396 19.66588 36183 ft 429 kts 325°
2026-04-07 18:06 40.94173 19.61835 36184 ft 429 kts 324°
2026-04-07 18:06 40.98952 19.57088 36187 ft 429 kts 325°
2026-04-07 18:07 41.03730 19.52342 36186 ft 429 kts 324°
2026-04-07 18:07 41.08498 19.47583 36186 ft 429 kts 324°
2026-04-07 18:08 41.13260 19.42820 36183 ft 429 kts 324°
2026-04-07 18:08 41.18018 19.38058 36185 ft 428 kts 324°
2026-04-07 18:09 41.22772 19.33284 36188 ft 428 kts 324°
2026-04-07 18:09 41.27518 19.28510 36188 ft 428 kts 324°
2026-04-07 18:10 41.32263 19.23732 36182 ft 428 kts 324°
2026-04-07 18:10 41.37004 19.18945 36184 ft 428 kts 324°
2026-04-07 18:11 41.41744 19.14145 36186 ft 428 kts 324°
2026-04-07 18:11 41.46478 19.09342 36185 ft 427 kts 324°
2026-04-07 18:12 41.51228 19.04590 36181 ft 427 kts 325°
2026-04-07 18:12 41.56016 18.99904 36175 ft 427 kts 325°
2026-04-07 18:13 41.60805 18.95209 36175 ft 427 kts 325°
2026-04-07 18:13 41.65584 18.90488 36174 ft 427 kts 325°
2026-04-07 18:14 41.70365 18.85750 36171 ft 428 kts 325°
2026-04-07 18:14 41.75149 18.81004 36169 ft 428 kts 324°
2026-04-07 18:15 41.79932 18.76247 36174 ft 428 kts 324°
2026-04-07 18:15 41.84676 18.71512 36171 ft 428 kts 324°
2026-04-07 18:16 41.89451 18.66733 36175 ft 428 kts 324°
2026-04-07 18:16 41.94229 18.61956 36183 ft 427 kts 324°
2026-04-07 18:17 41.98994 18.57181 36183 ft 428 kts 324°
2026-04-07 18:17 42.03758 18.52389 36186 ft 427 kts 324°
2026-04-07 18:18 42.08519 18.47598 36186 ft 427 kts 324°
2026-04-07 18:18 42.13277 18.42801 36192 ft 427 kts 324°
2026-04-07 18:19 42.18028 18.37997 36191 ft 427 kts 324°
2026-04-07 18:19 42.22781 18.33190 36187 ft 427 kts 323°
2026-04-07 18:20 42.27530 18.28380 36184 ft 427 kts 323°
2026-04-07 18:20 42.32279 18.23562 36181 ft 427 kts 323°
2026-04-07 18:21 42.37025 18.18722 36187 ft 427 kts 323°
2026-04-07 18:21 42.41767 18.13883 36186 ft 427 kts 323°
2026-04-07 18:22 42.46506 18.09047 36183 ft 427 kts 323°
2026-04-07 18:22 42.51241 18.04205 36189 ft 426 kts 323°
2026-04-07 18:23 42.55969 17.99344 36188 ft 426 kts 323°
2026-04-07 18:23 42.60694 17.94478 36177 ft 426 kts 323°
2026-04-07 18:24 42.65420 17.89610 36184 ft 427 kts 323°
2026-04-07 18:24 42.70149 17.84735 36181 ft 426 kts 323°
2026-04-07 18:25 42.74869 17.79857 36180 ft 426 kts 323°
2026-04-07 18:25 42.79586 17.74968 36177 ft 426 kts 323°
2026-04-07 18:26 42.84264 17.70110 36183 ft 426 kts 323°
2026-04-07 18:26 42.88967 17.65217 36173 ft 425 kts 323°
2026-04-07 18:27 42.93667 17.60319 36172 ft 425 kts 323°
2026-04-07 18:27 42.98357 17.55420 36172 ft 424 kts 323°
2026-04-07 18:28 43.03036 17.50527 36170 ft 423 kts 323°
2026-04-07 18:28 43.07715 17.45637 36174 ft 423 kts 323°
2026-04-07 18:29 43.12384 17.40739 36170 ft 423 kts 323°
2026-04-07 18:29 43.17041 17.35816 36172 ft 422 kts 323°
2026-04-07 18:30 43.21690 17.30900 36171 ft 422 kts 323°
2026-04-07 18:30 43.26345 17.25987 36170 ft 422 kts 323°
2026-04-07 18:31 43.30990 17.21074 36169 ft 421 kts 323°
2026-04-07 18:31 43.35628 17.16153 36167 ft 421 kts 323°
2026-04-07 18:32 43.40264 17.11222 36164 ft 421 kts 323°
2026-04-07 18:32 43.44897 17.06293 36159 ft 421 kts 323°
2026-04-07 18:33 43.49520 17.01344 36159 ft 421 kts 323°
2026-04-07 18:33 43.54153 16.96391 36156 ft 421 kts 323°
2026-04-07 18:34 43.58787 16.91440 36157 ft 422 kts 323°
2026-04-07 18:34 43.63418 16.86476 36158 ft 422 kts 323°
2026-04-07 18:35 43.68012 16.81525 36157 ft 422 kts 322°
2026-04-07 18:35 43.72663 16.76493 36157 ft 422 kts 323°
2026-04-07 18:36 43.77287 16.71497 36157 ft 422 kts 323°
2026-04-07 18:36 43.81879 16.66530 36156 ft 422 kts 322°
2026-04-07 18:37 43.86502 16.61514 36159 ft 422 kts 322°
2026-04-07 18:37 43.91125 16.56490 36159 ft 422 kts 322°
2026-04-07 18:38 43.95744 16.51455 36157 ft 422 kts 322°
2026-04-07 18:38 44.00369 16.46416 36156 ft 423 kts 322°
2026-04-07 18:39 44.04980 16.41371 36159 ft 422 kts 322°
2026-04-07 18:39 44.09580 16.36313 36160 ft 422 kts 322°
2026-04-07 18:40 44.14190 16.31258 36156 ft 421 kts 325°
2026-04-07 18:40 44.19262 16.27223 36152 ft 420 kts 332°
2026-04-07 18:41 44.24426 16.23409 36148 ft 420 kts 332°
2026-04-07 18:41 44.29587 16.19550 36117 ft 422 kts 332°
2026-04-07 18:42 44.34781 16.15658 36110 ft 425 kts 332°
2026-04-07 18:42 44.40004 16.11756 36117 ft 426 kts 332°
2026-04-07 18:43 44.45239 16.07841 36121 ft 427 kts 332°
2026-04-07 18:43 44.50481 16.03911 36140 ft 427 kts 332°
2026-04-07 18:44 44.55727 15.99981 36148 ft 428 kts 332°
2026-04-07 18:44 44.60973 15.96031 36150 ft 429 kts 332°
2026-04-07 18:45 44.66225 15.92065 36152 ft 429 kts 332°
2026-04-07 18:45 44.71482 15.88093 36156 ft 429 kts 332°
2026-04-07 18:46 44.76743 15.84112 36156 ft 429 kts 332°
2026-04-07 18:46 44.81961 15.80139 36156 ft 429 kts 332°
2026-04-07 18:47 44.87211 15.76134 36155 ft 428 kts 332°
2026-04-07 18:47 44.92481 15.72122 36154 ft 427 kts 332°
2026-04-07 18:48 44.97707 15.68135 36153 ft 427 kts 332°
2026-04-07 18:48 45.02891 15.64170 36153 ft 426 kts 332°
2026-04-07 18:49 45.08108 15.60167 36149 ft 426 kts 332°
2026-04-07 18:49 45.13316 15.56160 36147 ft 426 kts 332°
2026-04-07 18:50 45.18491 15.52180 36116 ft 418 kts 332°
2026-04-07 18:50 45.22750 15.48902 36123 ft 414 kts 331°
2026-04-07 18:51 45.27809 15.44989 36123 ft 414 kts 331°
2026-04-07 18:51 45.32858 15.41054 36135 ft 414 kts 331°
2026-04-07 18:52 45.37906 15.37130 36132 ft 414 kts 331°
2026-04-07 18:52 45.42955 15.33209 36119 ft 413 kts 331°
2026-04-07 18:53 45.47965 15.29307 36115 ft 413 kts 331°
2026-04-07 18:53 45.53003 15.25368 36114 ft 413 kts 331°
2026-04-07 18:54 45.58037 15.21427 36116 ft 413 kts 331°
2026-04-07 18:54 45.63072 15.17475 36125 ft 413 kts 331°
2026-04-07 18:55 45.68111 15.13508 36125 ft 414 kts 331°
2026-04-07 18:55 45.73157 15.09542 36131 ft 414 kts 331°
2026-04-07 18:56 45.78206 15.05563 36128 ft 414 kts 331°
2026-04-07 18:56 45.83250 15.01556 36139 ft 415 kts 331°
2026-04-07 18:57 45.88306 14.97550 36136 ft 415 kts 331°
2026-04-07 18:57 45.93366 14.93548 36139 ft 415 kts 331°
2026-04-07 18:58 45.98422 14.89525 36141 ft 415 kts 331°
2026-04-07 18:58 46.03472 14.85486 36148 ft 415 kts 330°
2026-04-07 18:59 46.08516 14.81446 36147 ft 414 kts 331°
2026-04-07 18:59 46.13543 14.77421 36148 ft 413 kts 331°
2026-04-07 19:00 46.18564 14.73393 36146 ft 413 kts 331°
2026-04-07 19:00 46.23579 14.69357 36131 ft 412 kts 330°
2026-04-07 19:01 46.28589 14.65317 36142 ft 412 kts 331°
2026-04-07 19:02 46.36101 14.59244 36129 ft 412 kts 330°
2026-04-07 19:02 46.41114 14.55189 36135 ft 413 kts 331°
2026-04-07 19:03 46.46120 14.51122 36147 ft 412 kts 330°
2026-04-07 19:03 46.51118 14.47036 36147 ft 413 kts 330°
2026-04-07 19:04 46.56121 14.42956 36153 ft 412 kts 330°
2026-04-07 19:04 46.61125 14.38883 36157 ft 412 kts 330°
2026-04-07 19:05 46.66123 14.34794 36159 ft 412 kts 330°
2026-04-07 19:05 46.71111 14.30691 36158 ft 412 kts 330°
2026-04-07 19:06 46.76096 14.26579 36161 ft 411 kts 330°
2026-04-07 19:06 46.81078 14.22472 36168 ft 411 kts 330°
2026-04-07 19:07 46.86052 14.18366 36169 ft 410 kts 330°
2026-04-07 19:07 46.91012 14.14266 36172 ft 409 kts 330°
2026-04-07 19:08 46.95967 14.10157 36181 ft 409 kts 330°
2026-04-07 19:08 47.00908 14.06043 36190 ft 409 kts 330°
2026-04-07 19:09 47.05844 14.01923 36190 ft 408 kts 330°
2026-04-07 19:09 47.10775 13.97804 36197 ft 407 kts 330°
2026-04-07 19:10 47.15698 13.93687 36195 ft 407 kts 330°
2026-04-07 19:10 47.20623 13.89567 36201 ft 407 kts 330°
2026-04-07 19:11 47.25539 13.85426 36206 ft 407 kts 330°
2026-04-07 19:11 47.30454 13.81281 36224 ft 407 kts 330°
2026-04-07 19:12 47.35368 13.77131 36234 ft 407 kts 330°
2026-04-07 19:12 47.40277 13.72975 36247 ft 406 kts 330°
2026-04-07 19:13 47.45173 13.68825 36249 ft 405 kts 330°
2026-04-07 19:13 47.50029 13.64710 36262 ft 405 kts 330°
2026-04-07 19:14 47.54911 13.60549 36270 ft 405 kts 330°
2026-04-07 19:14 47.59813 13.56353 36274 ft 404 kts 330°
2026-04-07 19:15 47.64654 13.52221 36281 ft 404 kts 330°
2026-04-07 19:15 47.69522 13.48057 36285 ft 404 kts 330°
2026-04-07 19:16 47.74419 13.43842 36285 ft 404 kts 330°
2026-04-07 19:16 47.79280 13.39651 36288 ft 404 kts 330°
2026-04-07 19:17 47.84143 13.35462 36289 ft 403 kts 330°
2026-04-07 19:17 47.88997 13.31268 36292 ft 403 kts 330°
2026-04-07 19:18 47.93851 13.27066 36295 ft 404 kts 330°
2026-04-07 19:18 47.98707 13.22845 36294 ft 404 kts 330°
2026-04-07 19:19 48.03568 13.18608 36299 ft 404 kts 329°
2026-04-07 19:19 48.05832 13.16146 36303 ft 404 kts 316°
2026-04-07 19:19 48.07574 13.12836 36312 ft 407 kts 305°
2026-04-07 19:20 48.10566 13.05641 36301 ft 408 kts 304°
2026-04-07 19:20 48.13528 12.98398 36299 ft 408 kts 304°
2026-04-07 19:21 48.16487 12.91205 36298 ft 408 kts 306°
2026-04-07 19:21 48.19610 12.84111 36300 ft 408 kts 307°
2026-04-07 19:22 48.22786 12.77063 36297 ft 408 kts 307°
2026-04-07 19:22 48.25939 12.69970 36295 ft 409 kts 306°
2026-04-07 19:23 48.29067 12.62836 36294 ft 409 kts 306°
2026-04-07 19:23 48.32191 12.55684 36292 ft 409 kts 306°
2026-04-07 19:24 48.35323 12.48525 36292 ft 411 kts 306°
2026-04-07 19:24 48.38447 12.41334 36291 ft 411 kts 306°
2026-04-07 19:25 48.41571 12.34131 36294 ft 411 kts 306°
2026-04-07 19:25 48.44700 12.26908 36294 ft 412 kts 306°
2026-04-07 19:26 48.47827 12.19667 36295 ft 412 kts 306°
2026-04-07 19:26 48.50957 12.12428 36298 ft 413 kts 306°
2026-04-07 19:27 48.54083 12.05172 36296 ft 412 kts 306°
2026-04-07 19:27 48.57194 11.97909 36299 ft 412 kts 306°
2026-04-07 19:28 48.60296 11.90637 36295 ft 412 kts 306°
2026-04-07 19:28 48.63397 11.83359 36293 ft 412 kts 306°
2026-04-07 19:29 48.66498 11.76075 36291 ft 412 kts 306°
2026-04-07 19:29 48.69595 11.68763 36299 ft 413 kts 305°
2026-04-07 19:30 48.72692 11.61437 36320 ft 413 kts 305°
2026-04-07 19:30 48.75782 11.54097 36317 ft 413 kts 305°
2026-04-07 19:30 48.77326 11.50424 36076 ft 413 kts 305°
2026-04-07 19:31 48.78863 11.46767 35749 ft 411 kts 305°
2026-04-07 19:31 48.80395 11.43113 35427 ft 411 kts 305°
2026-04-07 19:31 48.81911 11.39499 35107 ft 411 kts 305°
2026-04-07 19:31 48.83448 11.35836 34778 ft 412 kts 306°
2026-04-07 19:32 48.84988 11.32168 34457 ft 412 kts 306°
2026-04-07 19:32 48.86808 11.28839 34083 ft 408 kts 318°
2026-04-07 19:32 48.88863 11.25857 33693 ft 410 kts 317°
2026-04-07 19:32 48.90228 11.23776 33424 ft 411 kts 316°
2026-04-07 19:33 48.92193 11.20611 33019 ft 412 kts 315°
2026-04-07 19:33 48.94097 11.17415 32632 ft 413 kts 314°
2026-04-07 19:33 48.96015 11.14154 32228 ft 415 kts 314°
2026-04-07 19:33 48.97940 11.10882 31826 ft 416 kts 314°
2026-04-07 19:34 48.99881 11.07604 31431 ft 417 kts 315°
2026-04-07 19:34 49.01839 11.04326 31029 ft 419 kts 315°
2026-04-07 19:34 49.03809 11.01051 30622 ft 420 kts 315°
2026-04-07 19:34 49.05788 10.97772 30227 ft 421 kts 315°
2026-04-07 19:35 49.07775 10.94474 29817 ft 423 kts 315°
2026-04-07 19:35 49.09765 10.91165 29426 ft 424 kts 315°
2026-04-07 19:35 49.11753 10.87848 29025 ft 423 kts 315°
2026-04-07 19:35 49.13728 10.84541 28666 ft 421 kts 315°
2026-04-07 19:36 49.15697 10.81243 28263 ft 419 kts 315°
2026-04-07 19:36 49.17654 10.77959 27864 ft 416 kts 315°
2026-04-07 19:36 49.19598 10.74695 27457 ft 414 kts 314°
2026-04-07 19:36 49.21531 10.71444 27061 ft 412 kts 314°
2026-04-07 19:37 49.23444 10.68202 26662 ft 410 kts 314°
2026-04-07 19:37 49.25347 10.64960 26262 ft 408 kts 314°
2026-04-07 19:37 49.27236 10.61736 25861 ft 406 kts 314°
2026-04-07 19:37 49.29115 10.58530 25462 ft 403 kts 314°
2026-04-07 19:38 49.30981 10.55346 25062 ft 401 kts 314°
2026-04-07 19:38 49.32841 10.52166 24778 ft 399 kts 314°
2026-04-07 19:38 49.34690 10.48999 24513 ft 398 kts 314°
2026-04-07 19:38 49.36473 10.45761 24306 ft 398 kts 308°
2026-04-07 19:39 49.38063 10.42284 24293 ft 398 kts 307°
2026-04-07 19:39 49.39650 10.38804 24295 ft 399 kts 307°
2026-04-07 19:39 49.41241 10.35319 24293 ft 399 kts 307°
2026-04-07 19:39 49.42835 10.31831 24292 ft 399 kts 307°
2026-04-07 19:40 49.44426 10.28348 24289 ft 398 kts 307°
2026-04-07 19:40 49.46016 10.24864 24294 ft 398 kts 307°
2026-04-07 19:40 49.47608 10.21368 23946 ft 398 kts 307°
2026-04-07 19:40 49.49183 10.17895 23458 ft 394 kts 307°
2026-04-07 19:41 49.50740 10.14451 22953 ft 391 kts 307°
2026-04-07 19:41 49.52283 10.11027 22452 ft 388 kts 307°
2026-04-07 19:41 49.53820 10.07618 21948 ft 386 kts 307°
2026-04-07 19:41 49.55342 10.04236 21448 ft 383 kts 307°
2026-04-07 19:42 49.56853 10.00876 20950 ft 380 kts 307°
2026-04-07 19:42 49.58357 9.97533 20438 ft 378 kts 307°
2026-04-07 19:42 49.59847 9.94217 19946 ft 376 kts 307°
2026-04-07 19:42 49.61333 9.90913 19446 ft 373 kts 307°
2026-04-07 19:43 49.62808 9.87632 18941 ft 371 kts 307°
2026-04-07 19:43 49.64275 9.84366 18441 ft 369 kts 307°
2026-04-07 19:43 49.65707 9.81169 17948 ft 366 kts 307°
2026-04-07 19:43 49.67152 9.77940 17446 ft 364 kts 307°
2026-04-07 19:44 49.68583 9.74733 16946 ft 362 kts 307°
2026-04-07 19:44 49.70002 9.71544 16441 ft 359 kts 307°
2026-04-07 19:44 49.71410 9.68373 15942 ft 357 kts 307°
2026-04-07 19:44 49.72811 9.65221 15439 ft 355 kts 307°
2026-04-07 19:45 49.74200 9.62092 14942 ft 352 kts 307°
2026-04-07 19:45 49.75579 9.58976 14439 ft 350 kts 307°
2026-04-07 19:45 49.76949 9.55879 13940 ft 348 kts 307°
2026-04-07 19:45 49.78310 9.52801 13434 ft 346 kts 307°
2026-04-07 19:46 49.79663 9.49742 12935 ft 344 kts 307°
2026-04-07 19:46 49.81009 9.46701 12433 ft 341 kts 307°
2026-04-07 19:46 49.82345 9.43672 11958 ft 339 kts 307°
2026-04-07 19:46 49.83673 9.40655 11700 ft 339 kts 307°
2026-04-07 19:47 49.85004 9.37633 11460 ft 339 kts 307°
2026-04-07 19:47 49.86186 9.34461 11293 ft 341 kts 297°
2026-04-07 19:47 49.86947 9.31076 11294 ft 322 kts 289°
2026-04-07 19:47 49.87556 9.27825 11301 ft 310 kts 289°
2026-04-07 19:48 49.88166 9.24626 11303 ft 309 kts 290°
2026-04-07 19:48 49.88783 9.21426 11303 ft 309 kts 290°
2026-04-07 19:48 49.89400 9.18231 11303 ft 309 kts 290°
2026-04-07 19:48 49.90013 9.15038 11301 ft 309 kts 289°
2026-04-07 19:49 49.90623 9.11838 11304 ft 310 kts 289°
2026-04-07 19:49 49.91230 9.08626 11304 ft 310 kts 289°
2026-04-07 19:49 49.91835 9.05421 11302 ft 310 kts 289°
2026-04-07 19:49 49.92444 9.02210 11303 ft 310 kts 289°
2026-04-07 19:50 49.93059 8.98991 11303 ft 311 kts 289°
2026-04-07 19:50 49.93674 8.95770 11302 ft 311 kts 289°
2026-04-07 19:50 49.94290 8.92547 11302 ft 312 kts 289°
2026-04-07 19:50 49.94905 8.89324 11302 ft 312 kts 289°
2026-04-07 19:51 49.95523 8.86093 11303 ft 312 kts 289°
2026-04-07 19:51 49.96138 8.82861 11303 ft 313 kts 289°
2026-04-07 19:51 49.96750 8.79622 11303 ft 313 kts 289°
2026-04-07 19:51 49.97360 8.76378 11302 ft 313 kts 289°
2026-04-07 19:52 49.97823 8.73071 11303 ft 316 kts 277°
2026-04-07 19:52 49.97673 8.69648 11303 ft 322 kts 260°
2026-04-07 19:52 49.96957 8.66337 11302 ft 322 kts 252°
2026-04-07 19:52 49.96189 8.63166 11219 ft 307 kts 252°
2026-04-07 19:53 49.95448 8.60099 10926 ft 300 kts 252°
2026-04-07 19:53 49.94720 8.57085 10543 ft 297 kts 252°
2026-04-07 19:53 49.94000 8.54093 10133 ft 295 kts 252°
2026-04-07 19:53 49.93287 8.51120 9831 ft 293 kts 252°
2026-04-07 19:54 49.92572 8.48152 9577 ft 293 kts 251°
2026-04-07 19:54 49.91857 8.45193 9332 ft 292 kts 251°
2026-04-07 19:54 49.91148 8.42261 9077 ft 287 kts 251°
2026-04-07 19:54 49.90456 8.39410 8884 ft 278 kts 251°
2026-04-07 19:55 49.89787 8.36650 8714 ft 269 kts 251°
2026-04-07 19:55 49.89139 8.33979 8537 ft 260 kts 251°
2026-04-07 19:55 49.88506 8.31377 8388 ft 256 kts 251°
2026-04-07 19:55 49.87880 8.28793 8294 ft 255 kts 251°
2026-04-07 19:56 49.87256 8.26214 8300 ft 256 kts 251°
2026-04-07 19:56 49.86632 8.23637 8300 ft 256 kts 251°
2026-04-07 19:56 49.86003 8.21061 8138 ft 254 kts 251°
2026-04-07 19:56 49.85380 8.18514 7857 ft 253 kts 251°
2026-04-07 19:57 49.84758 8.15967 7606 ft 252 kts 251°
2026-04-07 19:57 49.84140 8.13430 7355 ft 251 kts 250°
2026-04-07 19:57 49.83525 8.10910 7107 ft 250 kts 250°
2026-04-07 19:57 49.82912 8.08396 6861 ft 248 kts 250°
2026-04-07 19:58 49.82429 8.05889 6605 ft 245 kts 267°
2026-04-07 19:58 49.82721 8.03347 6384 ft 240 kts 299°
2026-04-07 19:58 49.83804 8.01429 6283 ft 238 kts 328°
2026-04-07 19:58 49.85365 8.00592 6291 ft 236 kts 360°
2026-04-07 19:59 49.86923 8.01153 6300 ft 235 kts 31°
2026-04-07 19:59 49.88219 8.02702 6303 ft 237 kts 42°
2026-04-07 19:59 49.89426 8.04434 6171 ft 235 kts 44°
2026-04-07 19:59 49.90628 8.06200 5830 ft 234 kts 44°
2026-04-07 20:00 49.91712 8.08017 5509 ft 231 kts 60°
2026-04-07 20:00 49.92353 8.10295 5175 ft 230 kts 70°
2026-04-07 20:00 49.93430 8.14872 4719 ft 214 kts 69°
2026-04-07 20:01 49.93944 8.16984 4536 ft 206 kts 68°
2026-04-07 20:01 49.94446 8.19044 4368 ft 199 kts 69°
2026-04-07 20:01 49.94920 8.20992 4204 ft 187 kts 69°
2026-04-07 20:01 49.95372 8.22848 4076 ft 183 kts 68°
2026-04-07 20:02 49.95814 8.24665 4002 ft 182 kts 68°
2026-04-07 20:02 49.96260 8.26503 3876 ft 181 kts 68°
2026-04-07 20:02 49.96703 8.28329 3666 ft 180 kts 68°
2026-04-07 20:02 49.97148 8.30173 3464 ft 181 kts 69°
2026-04-07 20:03 49.97589 8.32001 3237 ft 180 kts 68°
2026-04-07 20:03 49.98031 8.33815 2993 ft 179 kts 68°
2026-04-07 20:03 49.98466 8.35609 2748 ft 176 kts 68°
2026-04-07 20:03 49.98891 8.37372 2506 ft 173 kts 68°
2026-04-07 20:04 49.99316 8.39108 2252 ft 171 kts 68°
2026-04-07 20:04 49.99718 8.40791 2010 ft 161 kts 69°
2026-04-07 20:04 50.00103 8.42371 1819 ft 151 kts 68°
2026-04-07 20:04 50.00456 8.43839 1662 ft 143 kts 69°
2026-04-07 20:05 50.00804 8.45292 1432 ft 143 kts 69°
2026-04-07 20:05 50.01143 8.46712 1267 ft 138 kts 66°
2026-04-07 20:05 50.01476 8.48101 1097 ft 136 kts 66°
2026-04-07 20:05 50.01806 8.49481 925 ft 136 kts 66°
2026-04-07 20:06 50.02141 8.50857 748 ft 136 kts 66°
2026-04-07 20:06 50.02470 8.52238 571 ft 136 kts 67°
2026-04-07 20:06 50.02801 8.53615 378 ft 136 kts 68°
2026-04-07 20:06 50.03108 8.54891 349 ft 111 kts 69°
2026-04-07 20:07 50.03320 8.55780 352 ft 68 kts 70°
2026-04-07 20:07 50.03431 8.56192 360 ft 34 kts 56°
2026-04-07 20:07 50.03568 8.56410 347 ft 25 kts 40°
2026-04-07 20:07 50.03660 8.56530 354 ft 11 kts 39°
2026-04-07 20:08 50.03721 8.56608 351 ft 11 kts 39°
2026-04-07 20:08 50.03778 8.56694 360 ft 12 kts 53°
2026-04-07 20:08 50.03814 8.56814 361 ft 13 kts 69°
2026-04-07 20:08 50.03853 8.56979 360 ft 19 kts 70°
2026-04-07 20:09 50.03899 8.57174 364 ft 19 kts 69°
2026-04-07 20:09 50.03943 8.57359 365 ft 18 kts 70°
2026-04-07 20:09 50.03986 8.57543 367 ft 18 kts 69°
2026-04-07 20:09 50.04033 8.57735 369 ft 20 kts 70°
2026-04-07 20:10 50.04082 8.57940 372 ft 21 kts 69°
2026-04-07 20:10 50.04131 8.58116 369 ft 15 kts 48°
2026-04-07 20:10 50.04211 8.58188 366 ft 5 kts 26°
2026-04-07 20:10 50.04222 8.58196 366 ft 0 kts 23°
2026-04-07 20:11 50.04224 8.58197 366 ft 1 kts 22°
2026-04-07 20:11 50.04228 8.58199 366 ft 1 kts 20°
2026-04-07 20:11 50.04257 8.58208 372 ft 8 kts
2026-04-07 20:11 50.04334 8.58175 367 ft 15 kts 340°
2026-04-07 20:12 50.04442 8.58113 370 ft 18 kts 340°
2026-04-07 20:12 50.04534 8.58018 364 ft 16 kts 281°
2026-04-07 20:12 50.04501 8.57846 370 ft 18 kts 250°
2026-04-07 20:12 50.04456 8.57658 368 ft 19 kts 249°
2026-04-07 20:13 50.04406 8.57447 364 ft 22 kts 250°
2026-04-07 20:13 50.04350 8.57212 364 ft 24 kts 250°
2026-04-07 20:13 50.04290 8.56961 361 ft 25 kts 250°
2026-04-07 20:13 50.04231 8.56717 360 ft 25 kts 250°
2026-04-07 20:14 50.04170 8.56456 360 ft 26 kts 250°
2026-04-07 20:14 50.04116 8.56235 355 ft 18 kts 249°
2026-04-07 20:14 50.04075 8.56060 356 ft 11 kts 251°
2026-04-07 20:14 50.04104 8.55965 362 ft 10 kts 335°
2026-04-07 20:15 50.04144 8.55942 352 ft 2 kts 339°
2026-04-07 20:15 50.04150 8.55938 352 ft 1 kts 340°
2026-04-07 20:15 50.04156 8.55935 359 ft 1 kts 339°
2026-04-07 20:17 50.04158 8.55933 352 ft 1 kts 339°
2026-04-07 20:17 50.04196 8.55916 353 ft 10 kts 355°
2026-04-07 20:17 50.04269 8.55956 356 ft 11 kts 10°
2026-04-07 20:18 50.04347 8.55926 361 ft 12 kts 340°
2026-04-07 20:18 50.04433 8.55915 362 ft 14 kts 12°
2026-04-07 20:18 50.04536 8.55963 361 ft 17 kts 24°
2026-04-07 20:18 50.04592 8.56121 362 ft 18 kts 70°
2026-04-07 20:19 50.04638 8.56314 361 ft 20 kts 70°
2026-04-07 20:19 50.04679 8.56488 356 ft 16 kts 69°
2026-04-07 20:19 50.04727 8.56600 359 ft 8 kts 54°
2026-04-07 20:19 50.04774 8.56604 356 ft 6 kts 340°
2026-04-07 20:20 50.04801 8.56588 356 ft 2 kts 340°
2026-04-07 20:20 50.04810 8.56583 356 ft 1 kts 340°
2026-04-07 20:20 50.04811 8.56583 356 ft 0 kts 340°